Hourly Data Report for July 30, 2017

TORONTO CITY
ONTARIO

43°40'00.000" N
79°24'00.000" W
112.50 m
6158355
71508
XTO

Download Data

Hourly Data (July 2017)
Hourly Data Report for July 30, 2017
TIME
LST
Temp Definition
°C
Dew Point Definition
°C
Rel Hum Definition
%
Precip. Amount Definition
mm

Wind Dir Definition
10's deg

Wind Spd Definition
km/h
Visibility Definition
km
Stn Press Definition
kPa
Hmdx Definition


Wind Chill Definition


Weather Definition


00:00 21.6 13.0 58 0.0 LegendMM LegendMM   100.31     LegendNANA
01:00 21.2 13.3 61 0.0 LegendMM LegendMM   100.30     LegendNANA
02:00 21.1 12.8 59 0.0 LegendMM LegendMM   100.30     LegendNANA
03:00 21.1 12.1 56 0.0 LegendMM LegendMM   100.28     LegendNANA
04:00 20.8 12.4 59 0.0 LegendMM LegendMM   100.33     LegendNANA
05:00 20.3 13.0 63 0.0 LegendMM LegendMM   100.36     LegendNANA
06:00 20.3 13.2 64 0.0 LegendMM LegendMM   100.43     LegendNANA
07:00 21.3 13.7 62 0.0 LegendMM LegendMM   100.44     LegendNANA
08:00 23.3 14.3 57 0.0 LegendMM LegendMM   100.48 27   LegendNANA
09:00 25.0 14.3 52 0.0 LegendMM LegendMM   100.50 29   LegendNANA
10:00 26.7 14.2 46 0.0 LegendMM LegendMM   100.54 30   LegendNANA
11:00 28.0 13.4 41 0.0 LegendMM LegendMM   100.54 31   LegendNANA
12:00 28.9 13.2 38 0.0 LegendMM LegendMM   100.52 32   LegendNANA
13:00 29.1 10.5 32 0.0 LegendMM LegendMM   100.51 31   LegendNANA
14:00 29.5 10.8 31 0.0 LegendMM LegendMM   100.51 31   LegendNANA
15:00 29.7 10.8 31 0.0 LegendMM LegendMM   100.46 31   LegendNANA
16:00 29.6 10.0 30 0.0 LegendMM LegendMM   100.42 31   LegendNANA
17:00 29.4 10.3 31 0.0 LegendMM LegendMM   100.42 31   LegendNANA
18:00 28.3 9.7 31 0.0 LegendMM LegendMM   100.43 29   LegendNANA
19:00 27.1 10.3 35 0.0 LegendMM LegendMM   100.48 29   LegendNANA
20:00 26.0 10.3 37 0.0 LegendMM LegendMM   100.49 27   LegendNANA
21:00 24.6 11.7 44 0.0 LegendMM LegendMM   100.53 27   LegendNANA
22:00 22.8 13.1 54 0.0 LegendMM LegendMM   100.56 26   LegendNANA
23:00 22.0 13.7 59 0.0 LegendMM LegendMM   100.54 25   LegendNANA

Notes on Data Quality.

Legend

  • E = Estimated
  • M = Missing
  • NA = Not Available*
  • [empty] = Indicates an unobserved value
Date modified: